Location: �terpigny
(49.8910°N, 2.9249°E)
Time: 19:22:19
(UTC+00:00)

Cosmos 1953 - Pass Details

Date: 24 October 2021
Orbit: 537 x 556 km, 82.5° (Epoch: 07 December)

Event Time Altitude Azimuth Distance (km) Brightness Sun altitude
Rises 17:30:31 0° 192° (SSW) 2,728 6.1 -8.8°
Reaches altitude 10° 17:32:41 10° 194° (SSW) 1,839 5.3 -9.2°
Maximum altitude 17:36:44 77° 279° (W) 578 2.5 -9.8°
Drops below altitude 10° 17:40:49 10° 7° (N) 1,855 4.9 -10.5°
Sets 17:43:01 0° 9° (N) 2,754 5.7 -10.8°
